TimeEST,TemperatureF,Dew PointF,Humidity,Sea Level PressureIn,VisibilityMPH,Wind Direction,Wind SpeedMPH,Gust SpeedMPH,PrecipitationIn,Events,Conditions,WindDirDegrees,DateUTC
12:15 AM,27.9,21.2,76,29.88,10.0,SW,16.1,21.9,N/A,,Mostly Cloudy,230,2013-01-04 05:15:00
12:35 AM,27.5,21.2,77,29.87,10.0,SW,16.1,21.9,N/A,,Scattered Clouds,230,2013-01-04 05:35:00
12:56 AM,27.3,21.0,77,29.85,10.0,WSW,20.7,27.6,N/A,,Clear,240,2013-01-04 05:56:00
1:15 AM,27.0,20.8,78,29.84,10.0,SW,20.7,27.6,N/A,,Clear,230,2013-01-04 06:15:00
1:35 AM,26.6,20.7,78,29.82,10.0,SW,17.3,25.3,N/A,,Clear,230,2013-01-04 06:35:00
1:55 AM,26.2,20.3,78,29.81,10.0,SW,15.0,23.0,N/A,,Clear,230,2013-01-04 06:55:00
2:15 AM,25.7,20.1,79,29.78,10.0,SW,18.4,25.3,N/A,,Clear,230,2013-01-04 07:15:00
2:35 AM,26.2,20.1,78,29.78,10.0,SW,18.4,27.6,N/A,,Clear,230,2013-01-04 07:35:00
2:55 AM,26.2,19.9,77,29.78,10.0,SW,15.0,21.9,N/A,,Clear,220,2013-01-04 07:55:00
3:16 AM,26.4,19.4,75,29.77,10.0,SW,15.0,25.3,N/A,,Clear,220,2013-01-04 08:16:00
3:35 AM,26.6,19.2,74,29.76,10.0,SW,19.6,25.3,N/A,,Clear,230,2013-01-04 08:35:00
3:54 AM,26.6,18.9,73,29.77,10.0,SW,18.4,27.6,N/A,,Clear,230,2013-01-04 08:54:00
4:15 AM,26.8,18.5,71,29.75,10.0,SW,20.7,31.1,N/A,,Clear,230,2013-01-04 09:15:00
4:35 AM,26.6,18.3,71,29.76,10.0,WSW,15.0,25.3,N/A,,Clear,240,2013-01-04 09:35:00
4:55 AM,26.8,18.5,71,29.77,10.0,WSW,15.0,29.9,N/A,,Clear,240,2013-01-04 09:55:00
5:15 AM,26.6,18.5,71,29.77,10.0,WSW,13.8,25.3,N/A,,Clear,250,2013-01-04 10:15:00
5:56 AM,27.1,19.6,73,29.80,10.0,West,12.7,24.2,N/A,,Mostly Cloudy,260,2013-01-04 10:56:00
6:15 AM,27.3,20.3,75,29.80,10.0,West,13.8,19.6,N/A,,Overcast,260,2013-01-04 11:15:00
6:36 AM,27.5,21.0,77,29.79,10.0,West,11.5,18.4,N/A,,Overcast,260,2013-01-04 11:36:00
6:55 AM,27.9,21.4,77,29.80,10.0,WSW,10.4,20.7,N/A,,Overcast,250,2013-01-04 11:55:00
7:15 AM,28.4,21.9,77,29.80,10.0,WSW,11.5,21.9,N/A,,Overcast,250,2013-01-04 12:15:00
7:36 AM,28.8,21.9,76,29.80,10.0,West,10.4,20.7,N/A,,Overcast,260,2013-01-04 12:36:00
7:55 AM,28.9,21.7,74,29.80,10.0,West,13.8,20.7,N/A,,Overcast,270,2013-01-04 12:55:00
8:15 AM,28.6,21.2,74,29.81,10.0,West,16.1,23.0,N/A,,Overcast,260,2013-01-04 13:15:00
8:35 AM,28.4,21.2,74,29.82,10.0,West,19.6,25.3,N/A,,Overcast,270,2013-01-04 13:35:00
8:55 AM,28.4,21.2,74,29.82,10.0,West,13.8,24.2,N/A,,Overcast,260,2013-01-04 13:55:00
9:15 AM,28.4,21.7,76,29.83,10.0,West,15.0,19.6,N/A,,Overcast,260,2013-01-04 14:15:00
9:35 AM,28.4,21.7,76,29.83,10.0,West,9.2,21.9,N/A,,Overcast,260,2013-01-04 14:35:00
9:55 AM,28.4,21.7,76,29.83,10.0,WSW,18.4,25.3,N/A,,Overcast,240,2013-01-04 14:55:00
10:15 AM,28.4,21.9,77,29.84,10.0,West,12.7,25.3,N/A,,Overcast,260,2013-01-04 15:15:00
10:35 AM,28.6,22.1,77,29.85,10.0,West,12.7,19.6,N/A,,Overcast,260,2013-01-04 15:35:00
10:55 AM,28.4,22.1,77,29.85,10.0,WSW,13.8,19.6,N/A,,Overcast,250,2013-01-04 15:55:00
11:16 AM,28.4,22.1,77,29.85,10.0,WSW,16.1,26.5,N/A,,Overcast,250,2013-01-04 16:16:00
11:35 AM,28.4,22.1,77,29.84,10.0,WSW,16.1,24.2,N/A,,Overcast,240,2013-01-04 16:35:00
11:55 AM,28.4,21.9,77,29.84,10.0,WSW,16.1,25.3,N/A,,Overcast,250,2013-01-04 16:55:00
12:15 PM,28.4,21.9,77,29.83,10.0,WSW,16.1,23.0,N/A,,Overcast,250,2013-01-04 17:15:00
12:35 PM,28.4,22.1,77,29.82,10.0,WSW,16.1,23.0,N/A,,Overcast,240,2013-01-04 17:35:00
12:55 PM,28.4,21.9,77,29.82,10.0,WSW,13.8,20.7,N/A,,Overcast,250,2013-01-04 17:55:00
1:15 PM,28.4,22.3,78,29.82,10.0,WSW,11.5,17.3,N/A,,Overcast,240,2013-01-04 18:15:00
1:35 PM,28.0,21.9,78,29.81,10.0,WSW,13.8,20.7,N/A,,Overcast,240,2013-01-04 18:35:00
1:56 PM,27.9,22.1,79,29.81,10.0,WSW,15.0,21.9,N/A,,Overcast,240,2013-01-04 18:56:00
2:15 PM,27.7,21.7,78,29.82,10.0,WSW,10.4,24.2,N/A,,Overcast,250,2013-01-04 19:15:00
2:35 PM,27.9,21.7,78,29.82,10.0,WSW,17.3,-,N/A,,Overcast,250,2013-01-04 19:35:00
2:55 PM,27.5,21.6,78,29.82,10.0,WSW,9.2,20.7,N/A,,Overcast,250,2013-01-04 19:55:00
3:15 PM,27.5,21.7,79,29.82,10.0,WSW,13.8,17.3,N/A,,Overcast,250,2013-01-04 20:15:00
3:35 PM,27.3,21.6,79,29.82,10.0,WSW,19.6,26.5,N/A,,Overcast,250,2013-01-04 20:35:00
3:55 PM,27.1,21.4,79,29.83,10.0,WSW,19.6,27.6,N/A,,Overcast,240,2013-01-04 20:55:00
4:15 PM,27.1,21.6,80,29.84,10.0,WSW,18.4,31.1,N/A,,Overcast,240,2013-01-04 21:15:00
4:35 PM,27.3,21.7,80,29.85,10.0,WSW,18.4,26.5,N/A,,Overcast,250,2013-01-04 21:35:00
4:55 PM,27.3,21.7,80,29.86,10.0,WSW,17.3,23.0,N/A,,Overcast,240,2013-01-04 21:55:00
5:15 PM,27.3,21.9,80,29.86,10.0,WSW,12.7,21.9,N/A,,Mostly Cloudy,240,2013-01-04 22:15:00
5:36 PM,27.3,22.1,81,29.86,10.0,WSW,17.3,24.2,N/A,,Mostly Cloudy,240,2013-01-04 22:36:00
5:55 PM,27.5,22.5,81,29.87,10.0,WSW,18.4,24.2,N/A,,Mostly Cloudy,250,2013-01-04 22:55:00
6:15 PM,27.5,22.6,82,29.88,10.0,WSW,16.1,24.2,N/A,,Mostly Cloudy,240,2013-01-04 23:15:00
6:35 PM,27.5,22.8,83,29.89,10.0,WSW,12.7,18.4,N/A,,Scattered Clouds,240,2013-01-04 23:35:00
6:55 PM,27.5,22.8,83,29.90,10.0,WSW,16.1,-,N/A,,Clear,240,2013-01-04 23:55:00
7:15 PM,27.5,23.0,83,29.92,10.0,WSW,11.5,20.7,N/A,,Clear,250,2013-01-05 00:15:00
7:35 PM,27.5,23.0,83,29.93,10.0,West,6.9,-,N/A,,Scattered Clouds,260,2013-01-05 00:35:00
7:55 PM,28.2,23.7,83,29.94,10.0,WSW,10.4,-,N/A,,Mostly Cloudy,250,2013-01-05 00:55:00
8:15 PM,28.4,23.9,83,29.94,10.0,WSW,13.8,18.4,N/A,,Overcast,240,2013-01-05 01:15:00
8:35 PM,28.8,24.3,83,29.95,10.0,WSW,9.2,-,N/A,,Overcast,250,2013-01-05 01:35:00
8:55 PM,29.3,24.8,83,29.96,10.0,WSW,10.4,-,N/A,,Overcast,250,2013-01-05 01:55:00
9:15 PM,29.8,25.0,82,29.97,10.0,West,8.1,-,N/A,,Overcast,260,2013-01-05 02:15:00
9:35 PM,30.6,24.8,79,29.98,10.0,West,8.1,-,N/A,,Overcast,270,2013-01-05 02:35:00
9:55 PM,31.5,25.0,77,29.99,10.0,West,5.8,-,N/A,,Overcast,280,2013-01-05 02:55:00
10:15 PM,32.0,25.0,75,30.00,10.0,WNW,9.2,-,N/A,,Overcast,300,2013-01-05 03:15:00
10:35 PM,32.5,23.7,70,30.01,10.0,NW,13.8,25.3,N/A,,Overcast,320,2013-01-05 03:35:00
10:55 PM,32.5,22.6,67,30.02,10.0,NW,18.4,28.8,N/A,,Overcast,310,2013-01-05 03:55:00
11:15 PM,32.0,21.4,65,30.02,10.0,NW,16.1,24.2,N/A,,Overcast,310,2013-01-05 04:15:00
11:36 PM,32.0,21.2,64,30.05,10.0,WNW,8.1,21.9,N/A,,Overcast,290,2013-01-05 04:36:00
11:55 PM,32.0,20.8,63,30.05,10.0,NW,13.8,21.9,N/A,,Overcast,310,2013-01-05 04:55:00